This is the latest recevied weather packets stored in our database for station/object OK1FET-5. If no packets are shown the sender has not sent any weather packets the latest 10 day(s).
| Time | Temp. | Humidity | Pressure | Rain* | Wind** | Luminosity | Snow |
|---|---|---|---|---|---|---|---|
| 1777569898 | 13.33° C | 29% | 1029.3 hPa | - | - | - | - |
| 1777569015 | 13.89° C | 28% | 1029.3 hPa | - | - | - | - |
| 1777567542 | 14.44° C | 29% | 1029.4 hPa | - | - | - | - |
| 1777566954 | 15° C | 29% | 1029.4 hPa | - | - | - | - |
| 1777566364 | 15.56° C | 30% | 1029.4 hPa | - | - | - | - |
| 1777566069 | 15.56° C | 30% | 1029.4 hPa | - | - | - | - |
| 1777565774 | 15.56° C | 30% | 1029.4 hPa | - | - | - | - |
| 1777565480 | 15.56° C | 30% | 1029.5 hPa | - | - | - | - |
| 1777564007 | 15° C | 28% | 1029.6 hPa | - | - | - | - |
| 1777562534 | 16.11° C | 27% | 1029.8 hPa | - | - | - | - |
| 1777557817 | 17.22° C | 26% | 1030 hPa | - | - | - | - |
| 1777556342 | 20° C | 27% | 1030 hPa | - | - | - | - |
| 1777556047 | 19.44° C | 27% | 1030 hPa | - | - | - | - |
| 1777555752 | 18.89° C | 27% | 1030.1 hPa | - | - | - | - |
| 1777555162 | 19.44° C | 27% | 1030.2 hPa | - | - | - | - |
| 1777554867 | 18.89° C | 26% | 1030.2 hPa | - | - | - | - |
| 1777554572 | 19.44° C | 24% | 1030.2 hPa | - | - | - | - |
| 1777554277 | 20° C | 27% | 1030.3 hPa | - | - | - | - |
| 1777553981 | 20.56° C | 26% | 1030.4 hPa | - | - | - | - |
| 1777552801 | 21.11° C | 25% | 1030.5 hPa | - | - | - | - |
| 1777552505 | 20.56° C | 26% | 1030.6 hPa | - | - | - | - |
| 1777551915 | 18.33° C | 27% | 1030.7 hPa | - | - | - | - |
| 1777551620 | 18.33° C | 27% | 1030.8 hPa | - | - | - | - |
| 1777550144 | 20° C | 26% | 1031.1 hPa | - | - | - | - |
| 1777548669 | 17.78° C | 28% | 1031.1 hPa | - | - | - | - |
* Rain since midnight (hover to see other rain measurements)
** Current wind speed in m/s (hover to see current wind gust speed)